Location: Watson Lake
(60.1170°N, 128.8000°W)
Time: 06:57:59
(UTC-08:00)

Daily predictions for brighter satellites

Satellite Brightness Start Highest point End
(mag) Time Altitude Azimuth Time Altitude Azimuth Time Altitude Azimuth
Cosmos 2297 4.1 16:57:15 10° NW 17:02:43 45° NNE 17:08:12 10° ESE
Cosmos 2208 Rocket 4.3 17:00:06 10° S 17:05:10 52° ESE 17:10:20 10° NE
Lacrosse 5 rocket 2.4 17:04:28 10° W 17:07:57 41° SSW 17:11:32 10° SE
Cosmos 1707 2.8 17:06:11 10° SSW 17:10:03 82° WNW 17:13:57 10° NNE
MSX 3.9 17:05:14 10° SE 17:10:49 56° ENE 17:16:26 10° NNW
CZ-2C R/B 4.4 17:08:07 10° NNE 17:12:38 39° E 17:17:07 10° SSE
Cosmos 2285 Rocket 4.2 17:06:29 10° SSW 17:12:43 63° ESE 17:19:02 10° NE
Cosmos 1076 Rocket 4.2 17:09:44 10° SSE 17:13:37 35° E 17:17:33 10° NNE
SJ-12 3.9 17:11:13 10° SSE 17:15:19 66° ENE 17:19:27 10° NNW
Cosmos 1271 Rocket 4.4 17:12:42 10° NNW 17:16:13 38° W 17:19:43 10° SSW
Cosmos 389 Rocket 2.5 17:12:51 10° NNW 17:16:31 77° ENE 17:20:07 10° SSE
Cosmos 1844 Rocket 3.0 17:11:53 10° NW 17:17:35 74° SW 17:23:14 10° SSE
Cosmos 2221 3.0 17:13:36 10° NNW 17:17:52 67° W 17:22:07 10° S
Cosmos 1174 4.3 17:16:18 10° SSW 17:19:03 32° SE 17:22:08 10° ENE
In-Cosmos 22 4.5 17:15:29 10° SSE 17:20:37 46° E 17:25:55 10° NNE
MOZ.5/SAFIR/RUBIN 5/SL-8 3.9 17:17:31 10° NNE 17:22:21 85° WNW 17:27:09 10° SSW
Blok-2BL 3.7 17:19:11 10° WNW 17:22:33 51° N 17:26:00 10° E
Cosmos 2322 4.4 17:17:32 10° S 17:22:43 37° ESE 17:27:56 10° NE
COSMOS 2455 2.9 17:17:42 10° SW 17:23:46 88° NW 17:29:53 10° NE
Cosmos 1634 Rocket 4.2 17:18:11 10° N 17:24:15 50° ENE 17:30:15 10° SE
PAYLOAD A 4.4 17:19:50 10° SSE 17:25:16 79° WSW 17:30:37 10° NNW
CZ-4 R/B 1.2 17:21:48 10° SSE 17:25:42 81° ENE 17:29:40 10° NNW
Cosmos 1570 Rocket 4.1 17:21:49 10° SSW 17:27:10 75° ESE 17:32:30 10° NE
SL-16 R/B 2.3 17:21:58 10° SSW 17:27:38 76° SE 17:33:20 10° NE
Cosmos 372 Rocket 4.0 17:22:58 10° NNW 17:28:03 58° NE 17:33:05 10° SE
Meteor 1-24 Rocket 3.9 17:22:29 10° S 17:28:29 75° ESE 17:34:32 10° NNE
MOS 1 4.3 17:23:27 10° SSE 17:29:08 81° ENE 17:34:51 10° NNW
Geosat 4.5 17:24:15 10° NE 17:29:13 58° NW 17:34:09 10° WSW
AQUARIUS 4.1 17:25:50 10° SSE 17:30:20 79° ENE 17:34:53 10° NNW
Lacrosse 4 Rocket 1.9 17:28:50 10° NW 17:32:42 38° NNE 17:36:32 10° E
Meteor 2-2 Rocket 4.2 17:29:17 10° NNW 17:34:57 70° ENE 17:40:35 10° SSE
CZ-4C R/B 2.6 17:30:19 10° W 17:36:14 72° NNW 17:42:42 12° ENE
Cosmos 2360 Rocket 2.5 17:37:12 10° SSW 17:42:37 51° ESE 17:47:54 11° NE
Cosmos 1980 Rocket 2.7 17:37:42 10° WSW 17:43:12 55° NW 17:48:44 10° NE
Cosmos 2034 Rocket 4.4 17:37:12 10° NNW 17:43:32 72° W 17:49:52 10° S
Meteor 2-10 4.3 17:39:20 10° N 17:44:11 43° ENE 17:49:05 10° SE
USA 238 DEB 3.8 17:38:16 10° WSW 17:45:19 89° SSE 17:51:41 13° ENE
USA 238 3.8 17:38:21 10° WSW 17:45:25 89° SSE 17:51:47 13° ENE
SJ-6B 3.7 17:46:21 10° ESE 17:49:58 30° ENE 17:53:37 10° N
MTI 3.8 17:47:58 10° NNE 17:51:15 85° WNW 17:54:31 10° SSW
Cosmos 1766 Rocket 3.6 17:47:34 10° S 17:51:56 58° E 17:56:19 10° NNE
COSMO-SKYMED 1 3.8 17:49:35 11° NE 17:52:47 22° E 17:56:14 10° SE
ALOS 3.2 17:49:52 10° ESE 17:53:44 26° NE 17:57:38 10° N
FENGYUN 3A 4.4 17:49:13 10° ESE 17:53:53 31° NE 17:58:34 10° N
Cosmos 1707 Rocket 4.4 17:50:11 10° N 17:53:57 28° ENE 17:57:42 10° ESE
ATLAS 5 CENTAUR R/B 2.3 17:49:39 10° W 17:54:53 63° N 17:59:37 16° ENE
ATLAS 3B R/B 2.9 17:47:48 10° WSW 17:55:14 76° NNW 18:01:12 15° ENE
Cosmos 1697 Rocket 3.6 17:50:21 10° W 17:55:41 41° NNW 18:00:47 11° NE
GEOS 3 Rocket 3.7 17:52:14 14° ENE 17:56:45 81° NNW 18:01:59 10° WSW
Meteor 1-21 Rocket 4.4 17:51:20 10° S 17:57:05 57° E 18:02:47 10° NNE
CORIOLIS 4.4 17:52:52 10° SSE 17:58:14 75° WSW 18:03:40 10° NNW
Cosmos 2333 Rocket 3.4 17:56:19 10° SSE 18:00:31 22° ESE 18:02:58 17° ENE
SL-16 R/B 3.7 17:54:48 10° NNE 18:00:37 42° NW 18:06:26 10° WSW
Resurs 01 Rocket 2.6 17:57:16 10° ESE 18:01:01 27° NE 18:04:47 10° N
Cosmos 1607 4.1 17:54:58 10° WSW 18:01:08 67° NNW 18:06:11 16° ENE
USA 116 3.7 17:58:38 11° NNE 18:01:45 42° E 18:04:47 10° S
USA 215 4.3 17:56:01 10° SE 18:02:19 47° SSW 18:08:37 10° WNW
Cosmos 2228 Rocket 3.3 17:58:21 10° NNW 18:02:46 74° W 18:07:11 10° S
Cosmos 1908 4.0 17:59:23 10° NNW 18:03:12 55° W 18:07:00 10° S
Cosmos 1125 Rocket 3.7 17:57:59 10° NW 18:03:14 75° WSW 18:08:25 10° SSE
Thor Agena Rocket 3.9 17:58:23 10° NNE 18:03:29 46° E 18:08:30 10° S
METEOR-M 4.3 17:58:26 10° SE 18:03:35 50° ENE 18:08:45 10° NNW
YAOGAN 1 3.0 17:59:17 10° S 18:03:36 67° WSW 18:07:57 10° NNW
Cosmos 371 Rocket 4.4 18:00:02 10° SSE 18:03:51 24° ESE 18:05:56 18° ENE
Cosmos 724 4.5 17:58:36 10° SW 18:04:48 72° SE 18:09:51 16° ENE
Cosmos 2058 4.2 18:02:18 10° SE 18:05:18 20° E 18:05:48 19° ENE
Cosmos 1455 3.2 18:02:14 10° N 18:05:24 24° ENE 18:07:21 16° ESE
Cosmos 2278 Rocket 2.6 18:01:14 10° NW 18:06:55 70° WSW 18:12:34 10° SSE
FREGAT/IRIS 3.5 18:05:28 10° SE 18:08:10 28° ENE 18:10:53 10° N
Cosmos 2219 Rocket 3.1 18:04:33 10° SSE 18:09:19 29° ESE 18:12:17 18° ENE
Cosmos 1814 Rocket 4.2 18:04:21 10° S 18:09:35 57° ESE 18:14:15 13° NE
Meteor 1-27 4.3 18:05:03 10° NNW 18:10:50 66° ENE 18:16:39 10° SSE
NOSS 3-2 (A) 3.7 18:04:33 10° SW 18:10:54 78° SSE 18:16:25 18° ENE
Cosmos 2322 Rocket 2.5 18:05:22 10° SW 18:11:02 68° NW 18:16:06 13° NE
Cosmos 1408 Rocket 3.5 18:07:11 10° S 18:11:37 83° ESE 18:16:04 10° NNE
Cosmos 1943 Rocket 3.1 18:08:27 10° NW 18:13:20 30° NNE 18:16:15 19° ENE
SMAP 4.0 18:09:13 10° S 18:13:46 52° W 18:18:22 10° NNW
Orbus 7S? 4.3 18:11:17 10° W 18:14:13 45° S 18:19:35 10° ESE
SPOT 3 Rocket 4.3 18:09:10 10° S 18:14:15 58° WSW 18:19:24 10° NNW
Cosmos 1238 4.3 18:11:36 10° SSW 18:15:06 80° WNW 18:18:10 10° NNE
Cosmos 2279 Rocket 4.0 18:09:12 10° N 18:15:23 64° ENE 18:21:35 10° SSE
NOSS 3-2 (C) 3.7 18:09:20 10° SW 18:15:40 73° SE 18:20:58 19° ENE
Cosmos 1674 2.6 18:12:49 10° S 18:16:38 66° E 18:20:30 10° NNE
Helios 1A 4.0 18:17:53 23° ENE 18:18:55 25° NE 18:22:24 10° N
Cosmos 1726 2.1 18:16:27 10° NNW 18:20:15 89° E 18:24:02 10° SSE
EO 1 Del DPAF 4.2 18:17:22 10° N 18:21:07 48° WNW 18:24:50 10° SW
SL-19 R/B 4.4 18:16:02 10° SE 18:21:37 55° ENE 18:27:03 10° NNW
Spot 2 Rocket 3.8 18:19:09 10° SE 18:23:52 41° ENE 18:28:36 10° N
SL-14 R/B 4.0 18:20:35 10° SSE 18:24:06 32° E 18:25:29 25° NE
Cosmos 1869 4.3 18:21:04 10° N 18:24:32 26° ENE 18:24:47 26° ENE
Cosmos 1867 3.8 18:19:18 10° WNW 18:24:43 56° NNE 18:28:03 23° E
Cosmos 1300 2.7 18:20:54 10° NNW 18:24:46 86° W 18:28:38 10° S
Cosmos 2242 Rocket 4.3 18:21:20 10° N 18:25:16 30° ENE 18:27:03 22° ESE
Cosmos 841 Rocket 3.8 18:20:58 10° S 18:26:01 48° ESE 18:29:31 19° NE
NOAA 12 4.0 18:21:30 10° SSE 18:26:43 71° ENE 18:32:01 10° NNW
Cosmos 1484 Rocket 3.2 18:24:46 10° S 18:28:43 66° WSW 18:32:45 10° NNW
Lacrosse 5 2.3 18:24:24 10° WSW 18:29:19 52° SSE 18:32:10 24° E
IDEFIX/ARIANE 42P 4.1 18:28:08 10° SSW 18:33:01 39° W 18:37:58 10° NNW
Cosmos 468 Rocket 3.9 18:29:09 10° SSW 18:34:20 89° WNW 18:38:30 16° NNE
Cosmos 1743 Rocket 3.5 18:30:08 10° S 18:34:37 74° E 18:39:06 10° NNE
Cosmos 2180 Rocket 4.4 18:29:45 10° NNW 18:35:56 72° ENE 18:42:07 10° SSE
Cosmos 1515 Rocket 4.5 18:32:22 10° NNW 18:36:45 53° W 18:41:05 10° S
Cosmos 2151 3.3 18:32:52 10° SSE 18:36:50 42° E 18:38:57 24° NE
Cosmos 2084 Rocket 3.1 18:33:09 10° WNW 18:36:58 71° NNE 18:38:26 35° E
Cosmos 2369 Rocket 2.6 18:32:04 10° NW 18:37:33 43° NNE 18:40:14 26° E
Cosmos 2346 Rocket 4.4 18:31:47 10° S 18:38:01 72° E 18:44:14 10° NNE
Envisat 4.1 18:38:27 24° NE 18:38:40 24° NE 18:42:41 10° N
CZ-2C R/B 4.2 18:34:54 10° SSW 18:39:21 33° W 18:43:42 10° NNW
COSMOS 2428 2.7 18:35:18 10° SSW 18:40:56 63° ESE 18:44:32 23° NE
SKYMED 2 3.7 18:38:14 18° NNE 18:41:17 50° E 18:45:31 10° S
Cosmos 1151 Rocket 3.5 18:37:15 10° NNW 18:41:30 62° W 18:45:44 10° S
Cosmos 2237 Rocket 2.9 18:36:43 10° S 18:41:36 31° ESE 18:42:57 28° E
H-2A R/B 4.1 18:42:13 11° NNE 18:42:13 11° NNE 18:43:12 10° NNE
CENTAUR R/B 2.9 18:36:13 10° SSW 18:42:24 52° SE 18:46:24 25° ENE
Cosmos 2237 4.2 18:40:15 10° SSW 18:45:57 75° SE 18:49:40 23° NE
Lacrosse 5 rocket 3.8 18:43:57 10° W 18:46:29 18° SW 18:49:06 10° S
Cosmos 2297 4.0 18:41:35 10° NW 18:47:16 70° WSW 18:52:57 10° SSE
SL-16 R/B 3.8 18:43:39 10° SE 18:45:34 16° SE 18:45:34 16° SE
ERS-1 Rocket 4.2 18:48:15 22° NE 18:48:15 22° NE 18:51:44 10° N
Meteor 1-28 Rocket 3.5 18:49:50 42° E 18:49:50 42° E 18:53:20 10° S
Cosmos 1805 Rocket 4.5 18:49:48 10° SSE 18:52:49 30° ESE 18:52:49 30° ESE
Blok-2BL 3.3 18:52:38 10° WNW 18:56:09 88° S 18:56:47 57° ESE
Cosmos 921 Rocket 4.1 18:52:31 10° NNW 18:56:05 28° NNE 18:56:05 28° NNE
Tsikada Rocket 4.4 18:50:09 10° SSW 18:56:32 67° WNW 19:02:58 10° NNE
Cosmos 1500 Rocket 3.5 18:56:47 10° SSW 19:01:09 89° WNW 19:05:06 13° NNE
SAR-Lupe-4 3.7 19:01:41 51° NE 19:01:41 51° NE 19:04:50 10° N
CZ-4 R/B 4.4 18:58:37 10° SW 19:01:18 18° W 19:04:01 10° NW
Cosmos 1174 3.8 18:58:35 10° WSW 19:01:42 54° NNW 19:02:19 45° NNE
H-2A R/B 3.3 19:06:47 41° NNE 19:06:47 41° NNE 19:09:37 10° N
Cosmos 2322 3.9 19:00:58 10° SW 19:06:39 70° NW 19:10:14 24° NE
Cosmos 1242 Rocket 4.3 19:03:36 10° N 19:04:55 20° N 19:04:55 20° N
COSMOS 2455 3.5 19:04:27 10° W 19:10:18 48° NNW 19:13:09 28° NE
Cosmos 1328 3.7 19:07:16 10° SSW 19:11:14 84° WNW 19:13:18 27° N
Lacrosse 4 Rocket 1.4 19:07:38 10° NW 19:11:45 74° SW 19:13:07 40° SSE
SL-16 R/B 3.1 19:06:49 10° WSW 19:12:13 42° NNW 19:15:34 21° NNE
Cosmos 1763 Rocket 3.4 19:07:37 10° SW 19:12:50 83° WNW 19:15:41 27° NNE
Cosmos 332 Rocket 3.7 19:09:07 10° SSW 19:13:59 82° ESE 19:15:56 37° NE
Meteor 1-11 4.2 19:10:16 10° S 19:15:57 69° E 19:21:44 10° NNE
H-2A R/B 4.5 19:20:34 11° NNE 19:20:34 11° NNE 19:21:01 10° N
Spot 1 4.0 19:19:10 37° SE 19:20:56 73° ENE 19:25:20 10° NNW
Cosmos 2333 4.1 19:15:33 10° SW 19:21:11 88° ESE 19:23:39 35° NE
CZ-2D R/B 4.2 19:24:33 37° N 19:24:33 37° N 19:27:02 10° NNW
SJ-6B 3.7 19:20:27 10° S 19:24:28 53° WSW 19:28:35 10° NNW
CZ-4C R/B 2.6 19:19:09 10° WNW 19:25:24 70° N 19:27:53 42° E
Cosmos 2360 Rocket 2.7 19:21:11 10° WSW 19:26:42 55° NW 19:29:41 27° NNE
Cosmos 1980 Rocket 3.5 19:23:27 10° WNW 19:28:20 30° NNW 19:30:35 23° NNE
Cosmos 1862 Rocket 4.2 19:24:22 10° N 19:27:33 41° NNE 19:27:33 41° NNE
Cosmos 1980 3.7 19:23:26 10° SSW 19:29:00 59° ESE 19:29:58 52° E
COSMO-SKYMED 1 2.7 19:26:47 23° N 19:29:26 73° WNW 19:33:46 10° SSW
Cosmos 540 Rocket 3.4 19:24:53 10° SSW 19:30:00 65° ESE 19:30:43 58° ENE
ALOS 2.3 19:26:08 10° SSE 19:30:49 77° WSW 19:35:32 10° NNW
Cosmos 44 4.1 19:26:37 10° SSW 19:30:32 36° SSE 19:30:32 36° SSE
FengYun 1-2 T 4.3 19:26:05 10° SSE 19:31:39 76° WSW 19:37:12 10° NNW
NOSS 0 Rocket 3.9 19:25:42 10° SSW 19:31:49 63° ESE 19:33:26 47° ENE
Cosmos 1707 Rocket 4.1 19:27:52 10° NNW 19:32:09 58° W 19:36:24 10° S
FENGYUN 3A 3.7 19:28:24 10° SSE 19:33:47 77° WSW 19:39:13 10° NNW
GEOS 3 Rocket 4.0 19:33:20 42° NE 19:34:38 53° N 19:39:40 10° W
USA 238 DEB 3.8 19:29:42 10° W 19:36:44 68° N 19:39:07 43° ENE
USA 238 3.8 19:29:48 10° W 19:36:50 68° N 19:39:14 43° ENE
Resurs 01 Rocket 1.8 19:32:45 10° S 19:37:12 70° WSW 19:41:41 10° NNW
HJ-1C 4.2 19:38:44 53° W 19:38:44 53° W 19:42:07 10° NNW
Meteor 2-10 Rocket 4.4 19:34:05 10° N 19:37:22 33° NNE 19:37:22 33° NNE
ATLAS 5 CENTAUR R/B 2.1 19:34:35 10° WNW 19:40:05 77° NNE 19:41:11 59° E
Cosmos 1697 Rocket 4.0 19:36:13 10° WNW 19:41:04 28° N 19:42:32 25° NNE
Cosmos 1455 2.8 19:37:41 10° NNW 19:41:24 55° W 19:42:30 39° SSW
Cosmos 1417 Rocket 4.5 19:35:15 10° N 19:41:26 56° ENE 19:42:01 54° E
Cosmos 2058 3.0 19:37:42 10° SSW 19:41:49 73° WNW 19:42:06 69° NW
Cosmos 783 Rocket 4.4 19:37:13 10° SSW 19:42:29 65° ESE 19:42:29 65° ESE
Thor Agena Rocket 4.5 19:37:48 10° NNE 19:42:52 47° WNW 19:47:52 10° SW
Cosmos 371 Rocket 3.2 19:38:59 10° SW 19:43:49 81° WNW 19:44:38 61° NNE
Cosmos 2333 Rocket 2.0 19:38:21 10° SSW 19:44:00 77° SE 19:45:00 60° ENE
Cosmos 2263 4.1 19:38:25 10° NW 19:44:02 65° NE 19:44:29 62° ENE
ATLAS 3B R/B 2.8 19:39:21 10° WNW 19:46:37 67° N 19:48:28 49° ENE
Resurs 1-3 3.8 19:44:53 34° S 19:46:44 68° WSW 19:51:09 10° NNW
Cosmos 1607 4.2 19:43:01 10° WNW 19:49:06 56° N 19:50:18 48° NE
Cosmos 2056 Rocket 3.7 19:45:28 10° NNW 19:49:56 53° NNE 19:49:56 53° NNE
Cosmos 972 Rocket 3.8 19:46:19 10° NNW 19:51:19 78° ENE 19:51:20 78° ENE
Cosmos 839 Rocket 4.1 19:45:29 10° WNW 19:52:34 67° NNE 19:53:39 57° ENE
Cosmos 2219 Rocket 2.1 19:47:08 10° SW 19:52:47 85° NW 19:54:02 56° NNE
Helios 1A 3.2 19:54:32 67° WNW 19:54:32 67° WNW 19:58:26 10° NNW
Cosmos 1340 Rocket 4.2 19:50:19 10° SSW 19:52:23 30° SSW 19:52:23 30° SSW
Cosmos 1624 Rocket 4.1 19:50:34 10° NNW 19:55:28 62° NNE 19:55:28 62° NNE
Cosmos 2322 Rocket 3.5 19:50:55 10° W 19:56:01 33° NNW 19:57:56 26° NNE
Cosmos 1943 Rocket 2.3 19:52:36 10° NW 19:57:48 59° NNE 19:57:48 59° NNE
Terra 4.3 20:02:31 11° N 20:02:31 11° N 20:02:51 10° N
SL-14 R/B 4.5 19:56:26 10° SW 20:00:14 42° WNW 20:01:00 37° NW
Cosmos 1869 4.2 19:57:10 10° NNW 20:00:26 48° WNW 20:00:26 48° WNW
NOSS 3-2 (A) 3.8 19:55:31 10° W 20:02:07 69° N 20:03:49 52° NE
Spot 2 Rocket 4.3 19:57:55 10° S 20:02:50 50° W 20:07:46 10° NNW
Cosmos 2242 Rocket 4.2 19:59:27 10° NNW 20:03:45 54° W 20:04:38 45° SW
Cosmos 44 Rocket 3.7 19:59:02 10° SW 20:03:11 57° SSW 20:03:11 57° SSW
NOSS 3-2 (C) 3.8 20:00:15 10° W 20:06:51 71° N 20:08:25 54° NE
Cosmos 841 Rocket 4.3 20:02:50 10° WSW 20:07:58 50° NW 20:09:38 37° N
Cosmos 1867 3.5 20:03:09 10° WNW 20:08:40 80° SW 20:08:43 80° SSW
Meteor 1-26 Rocket 4.3 20:04:08 10° NNW 20:09:11 63° NNE 20:09:11 63° NNE
Lacrosse 5 2.3 20:06:59 10° W 20:11:23 57° SW 20:11:23 57° SW
S3M 4.0 20:07:33 10° NNW 20:13:31 67° NE 20:13:31 67° NE
Cosmos 2151 4.5 20:10:23 10° SW 20:14:16 35° WNW 20:15:37 28° NNW
Cosmos 1371 Rocket 4.1 20:09:24 10° NNW 20:13:55 67° NNW 20:13:55 67° NNW
Envisat 3.7 20:18:39 47° NNW 20:18:39 47° NNW 20:22:15 10° NNW
H-2A R/B 4.1 20:22:51 17° N 20:22:51 17° N 20:24:12 10° N
Cosmos 2369 Rocket 2.2 20:16:18 10° NW 20:22:00 73° SW 20:22:03 73° SW
Cosmos 2237 Rocket 2.2 20:19:34 10° SW 20:24:50 75° W 20:24:50 75° W
COSMOS 2428 3.4 20:19:56 10° WSW 20:25:28 48° NW 20:26:34 43° N
ERS-1 Rocket 4.2 20:28:15 34° NNW 20:28:15 34° NNW 20:31:06 10° NNW
SL-16 R/B 3.6 20:25:04 10° SSW 20:27:31 27° SSW 20:27:31 27° SSW
Nadezhda 4 Rocket 4.2 20:25:38 10° SSW 20:31:54 71° WNW 20:38:17 10° NNE
CENTAUR R/B 2.7 20:26:13 10° WSW 20:32:55 81° NNW 20:33:36 73° NE
Cosmos 1656 Rocket 4.4 20:29:18 10° NW 20:33:32 45° N 20:33:32 45° N
Cosmos 1553 Rocket 4.1 20:38:20 10° NNW 20:43:35 66° NNW 20:43:35 66° NNW
Lacrosse 4 Rocket 4.0 20:47:10 10° WNW 20:49:30 17° WSW 20:49:30 17° WSW
Cosmos 1092 Rocket 4.2 20:44:04 10° SSW 20:52:36 43° N 20:56:47 10° NNE
COSMOS 2455 3.7 20:51:28 10° WNW 20:56:17 42° NNW 20:56:17 42° NNW
SL-16 R/B 3.7 20:52:49 10° WNW 20:57:27 28° N 20:57:27 28° N
Cosmos 2360 Rocket 3.7 21:06:55 10° WNW 21:11:27 29° NNW 21:11:27 29° NNW
Cosmos 1980 Rocket 3.9 21:09:00 10° NW 21:12:21 26° NNW 21:12:21 26° NNW
CZ-4C R/B 3.0 21:07:42 10° WNW 21:13:05 62° W 21:13:05 62° W
ATLAS 5 CENTAUR R/B 3.6 21:19:17 10° WNW 21:22:44 36° W 21:22:44 36° W
Cosmos 1697 Rocket 4.5 21:21:20 10° NW 21:24:16 26° NNW 21:24:16 26° NNW
USA 238 DEB 4.2 21:21:09 10° WNW 21:26:34 56° WNW 21:26:34 56° WNW
USA 238 4.2 21:21:15 10° WNW 21:26:40 56° WNW 21:26:40 56° WNW
Cosmos 2333 Rocket 3.6 21:23:22 10° W 21:27:03 34° WNW 21:27:03 34° WNW
Cosmos 2219 Rocket 3.8 21:32:15 10° W 21:35:47 30° WNW 21:35:47 30° WNW
ATLAS 3B R/B 3.4 21:30:34 10° WNW 21:35:43 51° WNW 21:35:43 51° WNW
Cosmos 2322 Rocket 4.1 21:36:46 10° NW 21:39:44 23° NNW 21:39:44 23° NNW
Cosmos 1943 Rocket 3.9 21:36:33 10° NW 21:39:20 28° WNW 21:39:20 28° WNW
Cosmos 2369 Rocket 4.5 22:01:07 10° NW 22:03:52 19° W 22:03:52 19° W
Cosmos 2237 Rocket 4.5 22:04:53 10° W 22:06:42 19° WNW 22:06:42 19° WNW
CENTAUR R/B 4.1 22:17:14 10° W 22:20:48 34° WNW 22:20:48 34° WNW
